| time (UTC) | temp C | wind direction | speed KPH | gust KPH | rain 1hr cm | rain 24hr cm | rain mn cm | humidity % | barometer mb |
| 20260510172010 | 16 | 261 | 4.8 | 14.5 | 0.00 | 0.03 | 0.00 | 44 | 1025.0 |
| 20260510171521 | 16 | 16 | 4.8 | 16.1 | 0.00 | 0.03 | 0.00 | 44 | 1025.0 |
| 20260510171006 | 16 | 331 | 4.8 | 16.1 | 0.00 | 0.03 | 0.00 | 43 | 1025.0 |
| 20260510170518 | 16 | 67 | 4.8 | 12.9 | 0.00 | 0.03 | 0.00 | 43 | 1024.9 |
| 20260510170005 | 16 | 348 | 4.8 | 8.0 | 0.00 | 0.03 | 0.00 | 45 | 1024.9 |
| 20260510165505 | 16 | 164 | 0.0 | 6.4 | 0.00 | 0.03 | 0.00 | 46 | 1024.9 |
| 20260510165005 | 15 | 303 | 1.6 | 11.3 | 0.00 | 0.03 | 0.00 | 43 | 1024.9 |
| 20260510164518 | 15 | 22 | 3.2 | 11.3 | 0.00 | 0.03 | 0.00 | 48 | 1025.0 |
| 20260510164008 | 15 | 59 | 0.0 | 9.7 | 0.00 | 0.03 | 0.00 | 50 | 1025.0 |
| 20260510163511 | 15 | 115 | 3.2 | 9.7 | 0.00 | 0.03 | 0.00 | 53 | 1025.1 |
| 20260510163031 | 15 | 304 | 1.6 | 8.0 | 0.00 | 0.03 | 0.00 | 56 | 1025.1 |
| 20260510162508 | 15 | 35 | 3.2 | 8.0 | 0.00 | 0.03 | 0.00 | 56 | 1025.1 |
| 20260510162003 | 15 | 345 | 1.6 | 8.0 | 0.00 | 0.03 | 0.00 | 57 | 1025.1 |
| 20260510161510 | 15 | 360 | 0.0 | 8.0 | 0.00 | 0.03 | 0.00 | 58 | 1025.2 |
| 20260510161006 | 14 | 14 | 3.2 | 12.9 | 0.00 | 0.03 | 0.00 | 60 | 1025.2 |
| 20260510160507 | 14 | 348 | 4.8 | 11.3 | 0.00 | 0.03 | 0.00 | 60 | 1025.2 |
| 20260510160018 | 14 | 56 | 4.8 | 9.7 | 0.00 | 0.03 | 0.00 | 59 | 1025.1 |
| 20260510155506 | 14 | 67 | 6.4 | 9.7 | 0.00 | 0.03 | 0.00 | 59 | 1025.0 |
| 20260510155010 | 14 | 327 | 3.2 | 8.0 | 0.00 | 0.03 | 0.00 | 60 | 1025.0 |
| 20260510154529 | 13 | 311 | 1.6 | 8.0 | 0.00 | 0.03 | 0.00 | 60 | 1025.0 |
| 20260510154004 | 13 | 71 | 4.8 | 8.0 | 0.00 | 0.03 | 0.00 | 60 | 1025.0 |
| 20260510153504 | 13 | 321 | 1.6 | 4.8 | 0.00 | 0.03 | 0.00 | 61 | 1025.0 |
| 20260510153013 | 13 | 5 | 1.6 | 8.0 | 0.00 | 0.03 | 0.00 | 61 | 1025.0 |
| 20260510152508 | 13 | 51 | 3.2 | 8.0 | 0.00 | 0.03 | 0.00 | 58 | 1024.9 |
| 20260510152009 | 13 | 352 | 1.6 | 8.0 | 0.00 | 0.03 | 0.00 | 59 | 1024.8 |
| 20260510151524 | 13 | 55 | 1.6 | 6.4 | 0.00 | 0.03 | 0.00 | 62 | 1024.8 |
| 20260510151007 | 13 | 137 | 1.6 | 6.4 | 0.00 | 0.03 | 0.00 | 62 | 1024.8 |
| 20260510150513 | 13 | 32 | 3.2 | 6.4 | 0.00 | 0.03 | 0.00 | 62 | 1024.7 |
| 20260510150008 | 13 | 147 | 0.0 | 6.4 | 0.00 | 0.03 | 0.00 | 64 | 1024.7 |
| 20260510145507 | 13 | 94 | 3.2 | 6.4 | 0.00 | 0.03 | 0.00 | 64 | 1024.6 |
| 20260510145004 | 12 | 42 | 1.6 | 6.4 | 0.00 | 0.03 | 0.00 | 65 | 1024.7 |
| 20260510144516 | 12 | 19 | 1.6 | 6.4 | 0.00 | 0.03 | 0.00 | 66 | 1024.8 |
| 20260510144007 | 12 | 98 | 3.2 | 6.4 | 0.00 | 0.03 | 0.00 | 1024.8 | |
| 20260510143516 | 12 | 114 | 1.6 | 6.4 | 0.00 | 0.03 | 0.00 | 68 | 1024.8 |
| 20260510143035 | 12 | 74 | 3.2 | 6.4 | 0.00 | 0.03 | 0.00 | 68 | 1024.9 |
| 20260510142511 | 11 | 115 | 0.0 | 6.4 | 0.00 | 0.03 | 0.00 | 69 | 1024.9 |
| 20260510142003 | 11 | 130 | 1.6 | 6.4 | 0.00 | 0.03 | 0.00 | 73 | 1024.8 |
| 20260510141512 | 11 | 120 | 1.6 | 4.8 | 0.00 | 0.03 | 0.00 | 73 | 1024.8 |
| 20260510141007 | 11 | 148 | 1.6 | 4.8 | 0.00 | 0.03 | 0.00 | 75 | 1024.8 |
| 20260510140509 | 11 | 170 | 1.6 | 6.4 | 0.00 | 0.03 | 0.00 | 75 | 1024.8 |
| 20260510140023 | 11 | 121 | 1.6 | 6.4 | 0.00 | 0.03 | 0.00 | 76 | 1024.8 |
| 20260510135509 | 10 | 111 | 3.2 | 8.0 | 0.00 | 0.03 | 0.00 | 76 | 1024.9 |
| 20260510135010 | 10 | 104 | 0.0 | 8.0 | 0.00 | 0.03 | 0.00 | 78 | 1024.8 |
| 20260510134526 | 10 | 105 | 1.6 | 6.4 | 0.00 | 0.03 | 0.00 | 79 | 1024.9 |
| 20260510134007 | 10 | 94 | 1.6 | 6.4 | 0.00 | 0.03 | 0.00 | 80 | 1024.9 |
| 20260510133505 | 9 | 117 | 3.2 | 6.4 | 0.00 | 0.03 | 0.00 | 80 | 1025.0 |
| 20260510133015 | 9 | 131 | 1.6 | 6.4 | 0.00 | 0.03 | 0.00 | 80 | 1025.0 |
| 20260510132513 | 9 | 111 | 0.0 | 6.4 | 0.00 | 0.03 | 0.00 | 81 | 1025.0 |
| 20260510132016 | 9 | 209 | 1.6 | 8.0 | 0.00 | 0.03 | 0.00 | 81 | 1025.1 |
| 20260510131528 | 8 | 163 | 3.2 | 9.7 | 0.00 | 0.03 | 0.00 | 82 | 1025.0 |
| 20260510131011 | 8 | 184 | 1.6 | 9.7 | 0.00 | 0.03 | 0.00 | 82 | 1025.0 |
| 20260510130511 | 8 | 198 | 1.6 | 4.8 | 0.00 | 0.03 | 0.00 | 83 | 1025.0 |
| 20260510130009 | 8 | 189 | 1.6 | 4.8 | 0.00 | 0.03 | 0.00 | 84 | 1025.1 |
| 20260510125507 | 8 | 217 | 0.0 | 3.2 | 0.00 | 0.03 | 0.00 | 85 | 1025.1 |
| 20260510125008 | 8 | 188 | 1.6 | 3.2 | 0.00 | 0.03 | 0.00 | 85 | 1025.0 |
| 20260510124530 | 8 | 182 | 0.0 | 3.2 | 0.00 | 0.03 | 0.00 | 86 | 1025.1 |
| 20260510124006 | 8 | 107 | 0.0 | 3.2 | 0.00 | 0.03 | 0.00 | 86 | 1025.1 |
| 20260510123513 | 8 | 62 | 0.0 | 3.2 | 0.00 | 0.03 | 0.00 | 85 | 1025.4 |
| 20260510123029 | 8 | 63 | 1.6 | 6.4 | 0.00 | 0.03 | 0.00 | 85 | 1025.5 |
| 20260510122509 | 8 | 11 | 1.6 | 6.4 | 0.00 | 0.03 | 0.00 | 85 | 1025.4 |
| 20260510122002 | 8 | 65 | 1.6 | 8.0 | 0.00 | 0.03 | 0.00 | 85 | 1025.4 |
| 20260510121504 | 8 | 40 | 3.2 | 8.0 | 0.00 | 0.03 | 0.00 | 85 | 1025.4 |
| 20260510121003 | 8 | 39 | 3.2 | 8.0 | 0.00 | 0.03 | 0.00 | 85 | 1025.3 |
| 20260510120504 | 8 | 62 | 3.2 | 6.4 | 0.00 | 0.03 | 0.00 | 84 | 1025.2 |
| 20260510120008 | 8 | 63 | 0.0 | 6.4 | 0.00 | 0.03 | 0.00 | 84 | 1025.2 |
| 20260510115502 | 8 | 75 | 3.2 | 8.0 | 0.00 | 0.03 | 0.00 | 84 | 1025.1 |
| 20260510115004 | 8 | 69 | 3.2 | 9.7 | 0.00 | 0.03 | 0.00 | 84 | 1025.1 |
| 20260510114507 | 8 | 55 | 3.2 | 9.7 | 0.00 | 0.03 | 0.00 | 84 | 1025.1 |
| 20260510114002 | 8 | 69 | 3.2 | 14.5 | 0.00 | 0.03 | 0.00 | 84 | 1025.1 |
| 20260510113504 | 8 | 119 | 3.2 | 14.5 | 0.00 | 0.03 | 0.00 | 84 | 1025.0 |
| 20260510113005 | 8 | 15 | 1.6 | 9.7 | 0.00 | 0.03 | 0.00 | 84 | 1024.8 |
| 20260510112505 | 8 | 56 | 4.8 | 9.7 | 0.00 | 0.03 | 0.00 | 84 | 1024.8 |
| 20260510112003 | 8 | 72 | 3.2 | 8.0 | 0.00 | 0.03 | 0.00 | 83 | 1024.7 |
| 20260510111505 | 8 | 56 | 0.0 | 9.7 | 0.00 | 0.03 | 0.00 | 83 | 1024.5 |
| 20260510111004 | 8 | 136 | 1.6 | 9.7 | 0.00 | 0.03 | 0.00 | 82 | 1024.5 |
| 20260510110503 | 8 | 64 | 3.2 | 9.7 | 0.00 | 0.03 | 0.00 | 81 | 1024.6 |
| 20260510110003 | 8 | 29 | 1.6 | 6.4 | 0.00 | 0.03 | 0.00 | 81 | 1024.5 |
| 20260510105504 | 8 | 86 | 3.2 | 6.4 | 0.00 | 0.03 | 0.00 | 81 | 1024.5 |
| 20260510105002 | 9 | 352 | 1.6 | 6.4 | 0.00 | 0.03 | 0.00 | 80 | 1024.5 |
| 20260510104504 | 9 | 21 | 1.6 | 9.7 | 0.00 | 0.03 | 0.00 | 79 | 1024.6 |
| 20260510104002 | 9 | 23 | 3.2 | 9.7 | 0.00 | 0.03 | 0.00 | 79 | 1024.5 |
| 20260510103502 | 9 | 13 | 3.2 | 6.4 | 0.00 | 0.03 | 0.00 | 77 | 1024.5 |
| 20260510103004 | 9 | 44 | 1.6 | 8.0 | 0.00 | 0.03 | 0.00 | 77 | 1024.4 |
| 20260510102503 | 9 | 35 | 4.8 | 8.0 | 0.00 | 0.03 | 0.00 | 76 | 1024.4 |
| 20260510102003 | 9 | 51 | 1.6 | 6.4 | 0.00 | 0.03 | 0.00 | 76 | 1024.3 |
| 20260510101504 | 9 | 21 | 1.6 | 4.8 | 0.00 | 0.03 | 0.00 | 76 | 1024.3 |
| 20260510101002 | 9 | 70 | 0.0 | 3.2 | 0.00 | 0.03 | 0.00 | 76 | 1024.1 |
| 20260510100505 | 9 | 70 | 0.0 | 3.2 | 0.00 | 0.03 | 0.00 | 76 | 1024.1 |
| 20260510100004 | 9 | 71 | 0.0 | 3.2 | 0.00 | 0.03 | 0.00 | 76 | 1024.1 |
| 20260510095503 | 9 | 71 | 0.0 | 3.2 | 0.00 | 0.03 | 0.00 | 76 | 1024.1 |
| 20260510095002 | 9 | 83 | 0.0 | 3.2 | 0.00 | 0.03 | 0.00 | 77 | 1024.1 |
| 20260510094504 | 9 | 64 | 0.0 | 3.2 | 0.00 | 0.03 | 0.00 | 76 | 1024.1 |
| 20260510094004 | 9 | 79 | 0.0 | 3.2 | 0.00 | 0.03 | 0.00 | 76 | 1024.0 |
| 20260510093504 | 9 | 57 | 0.0 | 3.2 | 0.00 | 0.03 | 0.00 | 75 | 1024.0 |
| 20260510093004 | 9 | 57 | 0.0 | 3.2 | 0.00 | 0.03 | 0.00 | 76 | 1023.9 |
| 20260510092503 | 9 | 22 | 0.0 | 3.2 | 0.00 | 0.03 | 0.00 | 75 | 1023.9 |
| 20260510090005 | 9 | 66 | 0.0 | 3.2 | 0.00 | 0.03 | 0.00 | 76 | 1023.7 |
| 20260510085505 | 9 | 164 | 0.0 | 3.2 | 0.00 | 0.03 | 0.00 | 78 | 1023.5 |
| 20260510085003 | 9 | 164 | 0.0 | 3.2 | 0.00 | 0.03 | 0.00 | 79 | 1023.4 |
| 20260510084504 | 9 | 164 | 0.0 | 3.2 | 0.00 | 0.03 | 0.00 | 79 | 1023.4 |
| 20260510084003 | 9 | 164 | 0.0 | 3.2 | 0.00 | 0.03 | 0.00 | 79 | 1023.4 |
| 20260510083504 | 9 | 164 | 0.0 | 3.2 | 0.00 | 0.03 | 0.00 | 79 | 1023.3 |
| 20260510083016 | 9 | 164 | 0.0 | 3.2 | 0.00 | 0.03 | 0.00 | 79 | 1023.2 |
| 20260510082504 | 9 | 164 | 0.0 | 3.2 | 0.00 | 0.03 | 0.00 | 80 | 1023.1 |
| 20260510082004 | 9 | 164 | 0.0 | 3.2 | 0.00 | 0.03 | 0.00 | 79 | 1023.3 |
| 20260510081505 | 9 | 165 | 0.0 | 3.2 | 0.00 | 0.03 | 0.00 | 78 | 1023.3 |
| 20260510081003 | 9 | 181 | 0.0 | 3.2 | 0.00 | 0.03 | 0.00 | 77 | 1023.3 |
| 20260510080503 | 9 | 181 | 0.0 | 3.2 | 0.00 | 0.03 | 0.00 | 77 | 1023.3 |
| 20260510080014 | 9 | 181 | 0.0 | 3.2 | 0.00 | 0.03 | 0.00 | 78 | 1023.3 |
| 20260510075505 | 9 | 181 | 0.0 | 3.2 | 0.00 | 0.03 | 0.00 | 77 | 1023.3 |
| 20260510075003 | 9 | 158 | 0.0 | 3.2 | 0.00 | 0.03 | 0.00 | 79 | 1023.3 |
| 20260510074504 | 9 | 140 | 0.0 | 4.8 | 0.00 | 0.03 | 0.00 | 79 | 1023.3 |
| 20260510074002 | 9 | 165 | 0.0 | 4.8 | 0.00 | 0.03 | 0.00 | 80 | 1023.3 |
| 20260510073503 | 9 | 192 | 1.6 | 4.8 | 0.00 | 0.03 | 0.00 | 79 | 1023.2 |
| 20260510073008 | 9 | 153 | 0.0 | 3.2 | 0.00 | 0.03 | 0.00 | 80 | 1023.3 |
| 20260510072507 | 9 | 178 | 0.0 | 3.2 | 0.00 | 0.03 | 0.00 | 81 | 1023.4 |
| 20260510072004 | 9 | 169 | 0.0 | 3.2 | 0.00 | 0.03 | 0.00 | 81 | 1023.5 |
| 20260510071505 | 9 | 177 | 0.0 | 3.2 | 0.00 | 0.03 | 0.00 | 81 | 1023.5 |
| 20260510071004 | 9 | 191 | 0.0 | 3.2 | 0.00 | 0.03 | 0.00 | 82 | 1023.5 |
| 20260510070503 | 9 | 191 | 0.0 | 3.2 | 0.00 | 0.03 | 0.00 | 82 | 1023.7 |
| 20260510070011 | 9 | 200 | 0.0 | 3.2 | 0.00 | 0.03 | 0.00 | 83 | 1023.8 |
| 20260510065504 | 9 | 200 | 1.6 | 3.2 | 0.00 | 0.03 | 0.00 | 82 | 1023.8 |
| 20260510065004 | 8 | 208 | 0.0 | 3.2 | 0.00 | 0.03 | 0.00 | 82 | 1023.8 |
| 20260510064509 | 8 | 202 | 1.6 | 3.2 | 0.00 | 0.03 | 0.00 | 83 | 1023.7 |
| 20260510064003 | 8 | 207 | 0.0 | 3.2 | 0.00 | 0.03 | 0.00 | 84 | 1023.7 |
| 20260510063504 | 8 | 184 | 1.6 | 3.2 | 0.00 | 0.03 | 0.00 | 84 | 1023.8 |
| 20260510063004 | 8 | 175 | 0.0 | 3.2 | 0.00 | 0.03 | 0.00 | 85 | 1023.7 |
| 20260510062505 | 8 | 173 | 0.0 | 3.2 | 0.00 | 0.03 | 0.00 | 84 | 1023.8 |
| 20260510062007 | 8 | 175 | 0.0 | 3.2 | 0.00 | 0.03 | 0.00 | 84 | 1024.0 |
| 20260510061504 | 8 | 131 | 0.0 | 3.2 | 0.00 | 0.03 | 0.00 | 83 | 1024.0 |
| 20260510061004 | 8 | 48 | 0.0 | 3.2 | 0.00 | 0.03 | 0.00 | 83 | 1023.9 |
| 20260510060504 | 8 | 48 | 0.0 | 3.2 | 0.00 | 0.03 | 0.00 | 82 | 1023.9 |
| 20260510060004 | 8 | 38 | 0.0 | 3.2 | 0.00 | 0.03 | 0.00 | 82 | 1024.0 |
| 20260510055505 | 8 | 38 | 0.0 | 3.2 | 0.00 | 0.03 | 0.03 | 82 | 1024.0 |
| 20260510055003 | 8 | 38 | 0.0 | 3.2 | 0.00 | 0.03 | 0.03 | 83 | 1023.9 |
| 20260510054506 | 8 | 46 | 0.0 | 3.2 | 0.00 | 0.03 | 0.03 | 83 | 1023.9 |
| 20260510054008 | 8 | 78 | 0.0 | 3.2 | 0.00 | 0.03 | 0.03 | 82 | 1023.8 |
| 20260510053507 | 9 | 95 | 0.0 | 3.2 | 0.00 | 0.03 | 0.03 | 82 | 1023.8 |
| 20260510053009 | 9 | 53 | 0.0 | 3.2 | 0.00 | 0.03 | 0.03 | 82 | 1023.9 |
| 20260510052503 | 9 | 60 | 0.0 | 3.2 | 0.00 | 0.03 | 0.03 | 83 | 1023.9 |
| 20260510052003 | 9 | 59 | 0.0 | 3.2 | 0.03 | 0.03 | 0.03 | 81 | 1024.0 |
| 20260510051510 | 9 | 56 | 0.0 | 3.2 | 0.03 | 0.03 | 0.03 | 83 | 1024.1 |
| 20260510051002 | 9 | 352 | 0.0 | 3.2 | 0.03 | 0.03 | 0.03 | 82 | 1024.0 |
| 20260510050503 | 9 | 352 | 0.0 | 3.2 | 0.03 | 0.03 | 0.03 | 82 | 1023.8 |
| 20260510050006 | 10 | 67 | 0.0 | 3.2 | 0.03 | 0.03 | 0.03 | 82 | 1023.5 |
| 20260510045503 | 10 | 71 | 0.0 | 3.2 | 0.03 | 0.03 | 0.03 | 81 | 1024.1 |
| 20260510045004 | 10 | 71 | 0.0 | 3.2 | 0.03 | 0.03 | 0.03 | 80 | 1024.2 |
| 20260510044506 | 10 | 71 | 0.0 | 3.2 | 0.03 | 0.03 | 0.03 | 79 | 1024.2 |
| 20260510044002 | 10 | 71 | 0.0 | 3.2 | 0.03 | 0.03 | 0.03 | 78 | 1024.2 |
| 20260510043503 | 10 | 71 | 0.0 | 3.2 | 0.03 | 0.03 | 0.03 | 76 | 1024.1 |
| 20260510043006 | 10 | 46 | 0.0 | 3.2 | 0.03 | 0.03 | 0.03 | 75 | 1023.9 |
| 20260510042503 | 10 | 45 | 0.0 | 3.2 | 0.03 | 0.03 | 0.03 | 73 | 1023.8 |
| 20260510042005 | 11 | 109 | 0.0 | 3.2 | 0.00 | 0.00 | 0.00 | 73 | 1023.9 |
| 20260510041509 | 11 | 109 | 0.0 | 3.2 | 0.00 | 0.00 | 0.00 | 70 | 1024.1 |
| 20260510041004 | 11 | 59 | 1.6 | 3.2 | 0.00 | 0.00 | 0.00 | 66 | 1024.1 |
| 20260510040501 | 11 | 169 | 0.0 | 3.2 | 0.00 | 0.00 | 0.00 | 63 | 1024.1 |
| 20260510040010 | 11 | 169 | 0.0 | 3.2 | 0.00 | 0.00 | 0.00 | 63 | 1024.1 |
| 20260510035503 | 11 | 62 | 0.0 | 3.2 | 0.00 | 0.00 | 0.00 | 64 | 1024.0 |
| 20260510035006 | 11 | 34 | 0.0 | 3.2 | 0.00 | 0.00 | 0.00 | 63 | 1024.0 |
| 20260510034506 | 11 | 180 | 0.0 | 3.2 | 0.00 | 0.00 | 0.00 | 63 | 1023.9 |
| 20260510034004 | 11 | 182 | 0.0 | 3.2 | 0.00 | 0.00 | 0.00 | 63 | 1023.7 |
| 20260510033504 | 11 | 124 | 0.0 | 3.2 | 0.00 | 0.00 | 0.00 | 64 | 1023.6 |
| 20260510033007 | 11 | 115 | 0.0 | 3.2 | 0.00 | 0.00 | 0.00 | 64 | 1023.5 |
| 20260510032505 | 11 | 87 | 0.0 | 3.2 | 0.00 | 0.00 | 0.00 | 64 | 1023.4 |
| 20260510032007 | 11 | 67 | 0.0 | 3.2 | 0.00 | 0.00 | 0.00 | 64 | 1023.3 |
| 20260510031506 | 11 | 23 | 1.6 | 8.0 | 0.00 | 0.00 | 0.00 | 63 | 1023.0 |
| 20260510031002 | 11 | 17 | 3.2 | 8.0 | 0.00 | 0.00 | 0.00 | 63 | 1022.9 |
| 20260510030502 | 11 | 329 | 3.2 | 9.7 | 0.00 | 0.00 | 0.00 | 63 | 1022.8 |
| 20260510030008 | 11 | 330 | 1.6 | 9.7 | 0.00 | 0.00 | 0.00 | 63 | 1022.9 |
| 20260510025502 | 11 | 352 | 3.2 | 8.0 | 0.00 | 0.00 | 0.00 | 63 | 1022.6 |
| 20260510025003 | 11 | 349 | 4.8 | 14.5 | 0.00 | 0.00 | 0.00 | 63 | 1022.3 |
| 20260510024507 | 11 | 346 | 4.8 | 16.1 | 0.00 | 0.00 | 0.00 | 62 | 1022.2 |
| 20260510024003 | 11 | 32 | 3.2 | 16.1 | 0.00 | 0.00 | 0.00 | 62 | 1022.0 |
| 20260510023503 | 11 | 352 | 4.8 | 19.3 | 0.00 | 0.00 | 0.00 | 61 | 1021.7 |
| 20260510023008 | 11 | 352 | 6.4 | 19.3 | 0.00 | 0.00 | 0.00 | 61 | 1021.5 |
| 20260510022505 | 11 | 332 | 4.8 | 24.1 | 0.00 | 0.00 | 0.00 | 62 | 1021.3 |
| 20260510022006 | 11 | 348 | 6.4 | 24.1 | 0.00 | 0.00 | 0.00 | 62 | 1021.2 |
| 20260510021514 | 11 | 43 | 6.4 | 19.3 | 0.00 | 0.00 | 0.00 | 62 | 1021.2 |
| 20260510021003 | 11 | 351 | 6.4 | 20.9 | 0.00 | 0.00 | 0.00 | 62 | 1021.0 |
| 20260510020506 | 11 | 352 | 11.3 | 24.1 | 0.00 | 0.00 | 0.00 | 62 | 1020.7 |
| 20260510020010 | 12 | 55 | 11.3 | 27.4 | 0.00 | 0.00 | 0.00 | 63 | 1020.7 |
| 20260510015503 | 12 | 30 | 9.7 | 27.4 | 0.00 | 0.00 | 0.00 | 63 | 1020.6 |
| 20260510015005 | 12 | 281 | 9.7 | 30.6 | 0.00 | 0.00 | 0.00 | 62 | 1020.5 |
| 20260510014509 | 12 | 313 | 8.0 | 30.6 | 0.00 | 0.00 | 0.00 | 61 | 1020.4 |
| 20260510014003 | 12 | 51 | 6.4 | 22.5 | 0.00 | 0.00 | 0.00 | 61 | 1020.4 |
| 20260510013505 | 12 | 10 | 9.7 | 20.9 | 0.00 | 0.00 | 0.00 | 61 | 1020.1 |
| 20260510013009 | 12 | 350 | 9.7 | 24.1 | 0.00 | 0.00 | 0.00 | 61 | 1020.1 |
| 20260510012503 | 12 | 9 | 11.3 | 24.1 | 0.00 | 0.00 | 0.00 | 60 | 1019.6 |
| 20260510012007 | 12 | 59 | 12.9 | 32.2 | 0.00 | 0.00 | 0.00 | 59 | 1019.2 |
| 20260510011516 | 12 | 326 | 12.9 | 32.2 | 0.00 | 0.00 | 0.00 | 59 | 1018.8 |
| 20260510011006 | 13 | 319 | 11.3 | 30.6 | 0.00 | 0.00 | 0.00 | 58 | 1018.5 |
| 20260510010505 | 13 | 352 | 11.3 | 38.6 | 0.00 | 0.00 | 0.00 | 57 | 1018.4 |
| 20260510010008 | 13 | 344 | 16.1 | 38.6 | 0.00 | 0.00 | 0.00 | 55 | 1018.1 |
| 20260510005507 | 13 | 30 | 8.0 | 30.6 | 0.00 | 0.00 | 0.00 | 55 | 1017.8 |
| 20260510005006 | 14 | 360 | 11.3 | 37.0 | 0.00 | 0.00 | 0.00 | 54 | 1017.5 |
| 20260510004513 | 15 | 13 | 11.3 | 35.4 | 0.00 | 0.00 | 0.00 | 53 | 1016.9 |
| 20260510004006 | 15 | 40 | 17.7 | 38.6 | 0.00 | 0.00 | 0.00 | 51 | 1016.7 |
| 20260510003506 | 15 | 13 | 17.7 | 49.9 | 0.00 | 0.00 | 0.00 | 49 | 1016.3 |
| 20260510003010 | 16 | 71 | 17.7 | 49.9 | 0.00 | 0.00 | 0.00 | 46 | 1015.9 |
| 20260510002503 | 20 | 22 | 24.1 | 41.8 | 0.00 | 0.00 | 0.00 | 37 | 1015.2 |
| 20260510002003 | 22 | 31 | 4.8 | 14.5 | 0.00 | 0.00 | 0.00 | 24 | 1014.1 |
| 20260510001510 | 23 | 51 | 6.4 | 11.3 | 0.00 | 0.00 | 0.00 | 23 | 1013.8 |
| 20260510001004 | 23 | 23 | 3.2 | 12.9 | 0.00 | 0.00 | 0.00 | 23 | 1013.6 |
| 20260510000504 | 23 | 20 | 4.8 | 12.9 | 0.00 | 0.00 | 0.00 | 22 | 1013.5 |
| 20260510000014 | 23 | 68 | 3.2 | 9.7 | 0.00 | 0.00 | 0.00 | 23 | 1013.4 |
| 20260509235510 | 23 | 46 | 4.8 | 16.1 | 0.00 | 0.00 | 0.00 | 23 | 1013.4 |
| 20260509235006 | 23 | 47 | 6.4 | 16.1 | 0.00 | 0.00 | 0.00 | 23 | 1013.3 |
| 20260509234514 | 23 | 100 | 6.4 | 16.1 | 0.00 | 0.00 | 0.00 | 23 | 1013.3 |
| 20260509234006 | 23 | 84 | 3.2 | 14.5 | 0.00 | 0.00 | 0.00 | 23 | 1013.3 |
| 20260509233509 | 23 | 89 | 6.4 | 14.5 | 0.00 | 0.00 | 0.00 | 22 | 1013.2 |
| 20260509233006 | 23 | 72 | 3.2 | 8.0 | 0.00 | 0.00 | 0.00 | 21 | 1013.1 |
| 20260509232504 | 23 | 113 | 4.8 | 14.5 | 0.00 | 0.00 | 0.00 | 22 | 1013.0 |
| 20260509232007 | 23 | 129 | 4.8 | 17.7 | 0.00 | 0.00 | 0.00 | 24 | 1012.8 |
| 20260509231514 | 23 | 40 | 6.4 | 17.7 | 0.00 | 0.00 | 0.00 | 22 | 1012.8 |
| 20260509231006 | 23 | 38 | 6.4 | 19.3 | 0.00 | 0.00 | 0.00 | 23 | 1012.7 |
| 20260509230506 | 23 | 51 | 6.4 | 19.3 | 0.00 | 0.00 | 0.00 | 24 | 1012.7 |
| 20260509230015 | 23 | 86 | 8.0 | 19.3 | 0.00 | 0.00 | 0.00 | 23 | 1012.5 |
| 20260509225506 | 23 | 61 | 3.2 | 17.7 | 0.00 | 0.00 | 0.00 | 24 | 1012.5 |
| 20260509225004 | 23 | 39 | 6.4 | 17.7 | 0.00 | 0.00 | 0.00 | 23 | 1012.6 |
| 20260509224512 | 23 | 60 | 8.0 | 17.7 | 0.00 | 0.00 | 0.00 | 22 | 1012.6 |
| 20260509224007 | 23 | 78 | 4.8 | 17.7 | 0.00 | 0.00 | 0.00 | 23 | 1012.5 |
| 20260509223507 | 23 | 42 | 8.0 | 17.7 | 0.00 | 0.00 | 0.00 | 23 | 1012.4 |
| 20260509223015 | 23 | 53 | 4.8 | 19.3 | 0.00 | 0.00 | 0.00 | 22 | 1012.3 |
| 20260509222507 | 23 | 44 | 1.6 | 19.3 | 0.00 | 0.00 | 0.00 | 23 | 1012.2 |
| 20260509222003 | 23 | 83 | 9.7 | 22.5 | 0.00 | 0.00 | 0.00 | 21 | 1012.2 |
| 20260509221518 | 23 | 344 | 9.7 | 20.9 | 0.00 | 0.00 | 0.00 | 21 | 1012.2 |
| 20260509221004 | 23 | 123 | 8.0 | 25.7 | 0.00 | 0.00 | 0.00 | 20 | 1012.2 |
| 20260509220504 | 23 | 49 | 11.3 | 25.7 | 0.00 | 0.00 | 0.00 | 20 | 1012.1 |
| 20260509220015 | 24 | 106 | 8.0 | 19.3 | 0.00 | 0.00 | 0.00 | 21 | 1012.2 |
| 20260509215505 | 23 | 346 | 8.0 | 19.3 | 0.00 | 0.00 | 0.00 | 20 | 1012.2 |
| 20260509215010 | 23 | 108 | 9.7 | 17.7 | 0.00 | 0.00 | 0.00 | 21 | 1012.2 |
| 20260509214521 | 23 | 80 | 3.2 | 22.5 | 0.00 | 0.00 | 0.00 | 21 | 1012.2 |
| 20260509214009 | 23 | 32 | 9.7 | 27.4 | 0.00 | 0.00 | 0.00 | 22 | 1012.2 |
| 20260509213504 | 23 | 51 | 8.0 | 27.4 | 0.00 | 0.00 | 0.00 | 22 | 1012.2 |
| 20260509213010 | 24 | 121 | 8.0 | 27.4 | 0.00 | 0.00 | 0.00 | 20 | 1012.3 |
| 20260509212504 | 23 | 32 | 3.2 | 17.7 | 0.00 | 0.00 | 0.00 | 21 | 1012.3 |
| 20260509212007 | 23 | 352 | 4.8 | 24.1 | 0.00 | 0.00 | 0.00 | 21 | 1012.3 |
| 20260509211518 | 23 | 66 | 12.9 | 24.1 | 0.00 | 0.00 | 0.00 | 21 | 1012.4 |
| 20260509211008 | 24 | 61 | 8.0 | 20.9 | 0.00 | 0.00 | 0.00 | 21 | 1012.6 |
| 20260509210507 | 24 | 86 | 9.7 | 20.9 | 0.00 | 0.00 | 0.00 | 21 | 1012.7 |
| 20260509210018 | 23 | 346 | 6.4 | 24.1 | 0.00 | 0.00 | 0.00 | 20 | 1012.6 |
| 20260509205506 | 23 | 44 | 9.7 | 24.1 | 0.00 | 0.00 | 0.00 | 21 | 1012.5 |
| 20260509205003 | 23 | 67 | 11.3 | 22.5 | 0.00 | 0.00 | 0.00 | 21 | 1012.6 |
| 20260509204523 | 24 | 19 | 6.4 | 14.5 | 0.00 | 0.00 | 0.00 | 21 | 1012.7 |
| 20260509204007 | 23 | 58 | 3.2 | 17.7 | 0.00 | 0.00 | 0.00 | 20 | 1012.7 |
| 20260509203509 | 23 | 59 | 8.0 | 19.3 | 0.00 | 0.00 | 0.00 | 22 | 1012.6 |
| 20260509203015 | 23 | 26 | 8.0 | 19.3 | 0.00 | 0.00 | 0.00 | 21 | 1012.8 |
| 20260509202506 | 24 | 288 | 8.0 | 20.9 | 0.00 | 0.00 | 0.00 | 20 | 1012.9 |
| 20260509202007 | 24 | 44 | 8.0 | 20.9 | 0.00 | 0.00 | 0.00 | 20 | 1012.9 |
| 20260509201506 | 24 | 72 | 8.0 | 20.9 | 0.00 | 0.00 | 0.00 | 21 | 1013.1 |
| 20260509201006 | 25 | 58 | 4.8 | 11.3 | 0.00 | 0.00 | 0.00 | 20 | 1013.2 |
| 20260509200504 | 24 | 352 | 3.2 | 9.7 | 0.00 | 0.00 | 0.00 | 21 | 1013.3 |
| 20260509200016 | 23 | 143 | 3.2 | 17.7 | 0.00 | 0.00 | 0.00 | 22 | 1013.3 |
| 20260509195508 | 23 | 119 | 9.7 | 17.7 | 0.00 | 0.00 | 0.00 | 21 | 1013.3 |
| 20260509195009 | 23 | 63 | 6.4 | 17.7 | 0.00 | 0.00 | 0.00 | 20 | 1013.3 |
| 20260509194521 | 23 | 24 | 6.4 | 12.9 | 0.00 | 0.00 | 0.00 | 21 | 1013.3 |
| 20260509194005 | 23 | 32 | 4.8 | 17.7 | 0.00 | 0.00 | 0.00 | 21 | 1013.4 |
| 20260509193503 | 24 | 69 | 8.0 | 17.7 | 0.00 | 0.00 | 0.00 | 20 | 1013.4 |
| 20260509193010 | 23 | 11 | 3.2 | 17.7 | 0.00 | 0.00 | 0.00 | 22 | 1013.3 |
| 20260509192506 | 23 | 93 | 3.2 | 16.1 | 0.00 | 0.00 | 0.00 | 23 | 1013.3 |
| 20260509192008 | 23 | 82 | 6.4 | 16.1 | 0.00 | 0.00 | 0.00 | 21 | 1013.4 |
| 20260509191525 | 23 | 80 | 6.4 | 16.1 | 0.00 | 0.00 | 0.00 | 21 | 1013.4 |
| 20260509191008 | 24 | 35 | 8.0 | 12.9 | 0.00 | 0.00 | 0.00 | 20 | 1013.5 |
| 20260509190507 | 23 | 343 | 3.2 | 17.7 | 0.00 | 0.00 | 0.00 | 21 | 1013.5 |
| 20260509190020 | 23 | 352 | 3.2 | 17.7 | 0.00 | 0.00 | 0.00 | 23 | 1013.4 |
| 20260509185506 | 23 | 55 | 6.4 | 20.9 | 0.00 | 0.00 | 0.00 | 22 | 1013.5 |
| 20260509185007 | 23 | 50 | 11.3 | 20.9 | 0.00 | 0.00 | 0.00 | 21 | 1013.6 |
| 20260509184522 | 23 | 76 | 6.4 | 16.1 | 0.00 | 0.00 | 0.00 | 24 | 1013.7 |
| 20260509184007 | 23 | 5 | 8.0 | 16.1 | 0.00 | 0.00 | 0.00 | 21 | 1013.7 |
| 20260509183510 | 23 | 74 | 3.2 | 14.5 | 0.00 | 0.00 | 0.00 | 22 | 1013.8 |
| 20260509183020 | 23 | 86 | 6.4 | 14.5 | 0.00 | 0.00 | 0.00 | 23 | 1013.8 |
| 20260509182507 | 23 | 88 | 6.4 | 12.9 | 0.00 | 0.00 | 0.00 | 21 | 1013.8 |
| 20260509182010 | 23 | 88 | 3.2 | 14.5 | 0.00 | 0.00 | 0.00 | 21 | 1013.7 |
| 20260509181512 | 23 | 41 | 6.4 | 17.7 | 0.00 | 0.00 | 0.00 | 21 | 1013.8 |
| 20260509181004 | 23 | 336 | 4.8 | 16.1 | 0.00 | 0.00 | 0.00 | 22 | 1013.8 |
| 20260509180507 | 23 | 334 | 6.4 | 14.5 | 0.00 | 0.00 | 0.00 | 20 | 1013.9 |
| 20260509180021 | 23 | 136 | 3.2 | 19.3 | 0.00 | 0.00 | 0.00 | 21 | 1013.9 |
| 20260509175506 | 23 | 98 | 4.8 | 19.3 | 0.00 | 0.00 | 0.00 | 19 | 1013.9 |
| 20260509175011 | 23 | 140 | 6.4 | 22.5 | 0.00 | 0.00 | 0.00 | 22 | 1013.8 |
| 20260509174522 | 23 | 360 | 6.4 | 22.5 | 0.00 | 0.00 | 0.00 | 22 | 1013.8 |
| 20260509174008 | 23 | 134 | 3.2 | 9.7 | 0.00 | 0.00 | 0.00 | 18 | 1013.7 |
| 20260509173506 | 23 | 138 | 1.6 | 11.3 | 0.00 | 0.00 | 0.00 | 16 | 1013.8 |
| 20260509173014 | 23 | 47 | 1.6 | 16.1 | 0.00 | 0.00 | 0.00 | 18 | 1013.9 |
| 20260509172510 | 23 | 51 | 4.8 | 16.1 | 0.00 | 0.00 | 0.00 | 18 | 1013.8 |